Weather in Carsamba

Turkey     41°11′50″N   36°43′23″E
temp.,
°C
wind,
m/s
gust,
m/s
humid.,
%
clouds,
%
prec.,
mm/h
press.,
hPa
HPBL,
m
9 may, sun
sun900:00+14n1394100 0.7 1015116
03:00+14nw61197100 1.1 1015806
06:00+11wnw91695100 11.0 1018917
09:00+11wnw61190100 20.3 10211061
12:00+13nw71179100 2.4 10241258
15:00+14nw79603 2.5 10251446
18:00+12nw56692 0.1 10271177
21:00+9w35804 0.2 1028126
10 may, mon
mon1000:00+7wsw248737 0.1 102894
03:00+7wsw238659 0.4 102785
06:00+7sw228660 0.2 102755
09:00+12wnw226640 0.3 1027965
12:00+14nnw435727 0.1 10261365
15:00+14nne43549 0.2 10251299
18:00+13ne33600 0.0 10241025
21:00+8sse22810 0.0 102516
11 may, tue
tue1100:00+6ssw22850 0.0 102324
03:00+5ssw23840 0.0 102137
06:00+5s23760 0.0 102146
09:00+13ese11513 0.0 1020661
12:00+16ne334542 0.0 10191377
15:00+15ene4351100 0.0 1018954
18:00+13e3462100 0.0 1018574
21:00+8se22820 0.0 101826
12 may, wed
wed1200:00+7ssw22845 0.0 101616
03:00+7sse22810 0.0 101516
06:00+7sse22830 0.0 101423
09:00+15e22592 0.0 1013453
12:00+18ene43547 0.0 1013680
15:00+18e556065 0.0 1012531
18:00+16e45730 0.0 1012344
21:00+11ese24930 0.0 101279
13 may, thu
thu1300:00+11e11945 0.0 101121
03:00+10ese119315 0.0 100917
06:00+12ese128710 0.0 100920
09:00+21e225752 0.0 1008211
12:00+25nne3152100 0.0 1008358
15:00+24ne22550 0.0 1009334
18:00+21ene23660 0.0 1009131
21:00+15wnw11820 0.0 101011